FW7253 Weather Reports


time (UTC)temp
C
wind
direction
speed
KPH
gust
KPH
rain 1hr
cm
rain 24hr
cm
rain mn
cm
humidity
%
barometer
mb
20260902194555 12 18 3.2 12.9 0.00 0.00 0.00 59 1008.9
20260902194032 12 343 4.8 16.1 0.00 0.00 0.00 59 1008.8
20260902193532 13 3 4.8 16.1 0.00 0.00 0.00 58 1008.9
20260902193049 13 309 3.2 17.7 0.00 0.00 0.00 57 1008.7
20260902192535 13 27 3.2 17.7 0.00 0.00 0.00 56 1008.5
20260902192035 13 321 6.4 17.7 0.00 0.00 0.00 56 1008.6
20260902191546 13 257 6.4 17.7 0.00 0.00 0.00 56 1008.5
20260902191035 13 301 8.0 22.5 0.00 0.00 0.00 55 1008.5
20260902190532 14 264 11.3 22.5 0.00 0.00 0.00 55 1008.5
20260902190100 14 285 12.9 22.5 0.00 0.00 0.00 55 1008.5
20260902185532 15 259 12.9 19.3 0.00 0.00 0.00 54 1008.5
20260902185035 15 265 8.0 20.9 0.00 0.00 0.00 54 1008.4
20260902184549 15 296 8.0 20.9 0.00 0.00 0.00 54 1008.5
20260902184034 15 326 9.7 17.7 0.00 0.00 0.00 54 1008.4
20260902183535 15 259 6.4 19.3 0.00 0.00 0.00 55 1008.4
20260902183110 15 196 6.4 19.3 0.00 0.00 0.00 56 1008.3
20260902182536 15 296 9.7 19.3 0.00 0.00 0.00 58 1008.2
20260902182034 15 223 4.8 11.3 0.00 0.00 0.00 57 1008.3
20260902181545 15 282 3.2 11.3 0.00 0.00 0.00 56 1008.2
20260902181032 15 237 4.8 11.3 0.00 0.00 0.00 56 1008.2
20260902180536 15 249 4.8 14.5 0.00 0.00 0.00 55 1008.3
20260902180050 16 252 6.4 14.5 0.00 0.00 0.00 54 1008.2
20260902175532 16 252 6.4 12.9 0.00 0.00 0.00 54 1008.2
20260902175033 16 238 4.8 12.9 0.00 0.00 0.00 54 1008.1
20260902174552 16 214 4.8 14.5 0.00 0.00 0.00 54 1008.1
20260902174034 16 212 6.4 16.1 0.00 0.00 0.00 53 1008.0
20260902173535 16 248 8.0 17.7 0.00 0.00 0.00 52 1008.0
20260902173111 16 229 9.7 17.7 0.00 0.00 0.00 51 1008.0
20260902172533 17 220 9.7 19.3 0.00 0.00 0.00 51 1008.0
20260902172034 17 266 8.0 24.1 0.00 0.00 0.00 50 1008.0
20260902171557 17 248 11.3 24.1 0.00 0.00 0.00 49 1008.1
20260902171032 17 263 11.3 24.1 0.00 0.00 0.00 49 1008.0
20260902170532 17 289 9.7 24.1 0.00 0.00 0.00 49 1008.1
20260902170052 17 279 12.9 24.1 0.00 0.00 0.00 48 1008.1
20260902165535 17 224 6.4 17.7 0.00 0.00 0.00 48 1008.1
20260902165032 17 255 9.7 20.9 0.00 0.00 0.00 48 1008.0
20260902164604 17 238 11.3 20.9 0.00 0.00 0.00 46 1008.1
20260902164034 18 231 8.0 19.3 0.00 0.00 0.00 46 1008.0
20260902163534 18 221 11.3 17.7 0.00 0.00 0.00 45 1008.0
20260902163052 18 231 4.8 14.5 0.00 0.00 0.00 45 1008.0
20260902162533 18 255 8.0 16.1 0.00 0.00 0.00 45 1007.9
20260902162034 18 243 8.0 19.3 0.00 0.00 0.00 43 1008.0
20260902161550 18 229 8.0 19.3 0.00 0.00 0.00 44 1007.9
20260902161031 18 228 9.7 19.3 0.00 0.00 0.00 43 1007.9
20260902160531 19 293 4.8 17.7 0.00 0.00 0.00 43 1007.9
20260902160047 19 259 8.0 17.7 0.00 0.00 0.00 42 1008.0
20260902155535 19 297 6.4 17.7 0.00 0.00 0.00 43 1008.0
20260902155032 19 300 8.0 17.7 0.00 0.00 0.00 43 1008.0
20260902154553 18 311 6.4 17.7 0.00 0.00 0.00 42 1007.9
20260902154034 19 289 9.7 19.3 0.00 0.00 0.00 42 1008.1
20260902153531 19 357 9.7 20.9 0.00 0.00 0.00 43 1007.9
20260902153059 19 245 12.9 24.1 0.00 0.00 0.00 42 1008.0
20260902152531 19 267 12.9 24.1 0.00 0.00 0.00 43 1008.0
20260902152032 19 269 12.9 24.1 0.00 0.00 0.00 42 1007.9
20260902151545 19 241 16.1 24.1 0.00 0.00 0.00 41 1007.9
20260902151031 20 274 6.4 30.6 0.00 0.00 0.00 42 1007.9
20260902150534 20 250 11.3 30.6 0.00 0.00 0.00 42 1008.0
20260902150055 20 237 16.1 25.7 0.00 0.00 0.00 41 1008.1
20260902145532 20 219 14.5 20.9 0.00 0.00 0.00 44 1008.0
20260902145031 20 257 9.7 22.5 0.00 0.00 0.00 43 1008.1
20260902144551 18 319 11.3 24.1 0.00 0.00 0.00 43 1008.1
20260902144031 18 214 11.3 24.1 0.00 0.00 0.00 44 1008.1
20260902143533 19 237 12.9 24.1 0.00 0.00 0.00 44 1008.1
20260902143048 19 280 9.7 27.4 0.00 0.00 0.00 43 1008.2
20260902142533 18 238 11.3 27.4 0.00 0.00 0.00 45 1008.2
20260902142032 19 246 14.5 25.7 0.00 0.00 0.00 44 1008.2
20260902141544 20 212 12.9 22.5 0.00 0.00 0.00 43 1008.1
20260902141031 19 245 9.7 24.1 0.00 0.00 0.00 46 1008.2
20260902140535 20 322 11.3 24.1 0.00 0.00 0.00 45 1008.3
20260902140053 20 291 9.7 20.9 0.00 0.00 0.00 45 1008.3
20260902135534 19 238 9.7 20.9 0.00 0.00 0.00 47 1008.2
20260902135034 19 288 8.0 16.1 0.00 0.00 0.00 48 1008.2
20260902134550 18 297 8.0 19.3 0.00 0.00 0.00 50 1008.4
20260902134032 18 251 8.0 25.7 0.00 0.00 0.00 48 1008.3
20260902133532 18 262 12.9 25.7 0.00 0.00 0.00 47 1008.5
20260902133101 19 247 11.3 25.7 0.00 0.00 0.00 47 1008.5
20260902132534 19 201 16.1 25.7 0.00 0.00 0.00 46 1008.4
20260902132032 19 289 16.1 25.7 0.00 0.00 0.00 47 1008.7
20260902131553 19 228 12.9 24.1 0.00 0.00 0.00 49 1008.6
20260902131033 19 233 9.7 29.0 0.00 0.00 0.00 48 1008.5
20260902130536 19 239 17.7 29.0 0.00 0.00 0.00 50 1008.7
20260902130049 18 258 8.0 27.4 0.00 0.00 0.00 51 1008.7
20260902125532 18 297 9.7 22.5 0.00 0.00 0.00 50 1008.5
20260902125032 19 239 14.5 24.1 0.00 0.00 0.00 52 1008.6
20260902124547 18 251 9.7 24.1 0.00 0.00 0.00 51 1008.7
20260902124034 18 236 14.5 24.1 0.00 0.00 0.00 52 1008.7
20260902123531 18 243 14.5 27.4 0.00 0.00 0.00 53 1008.6
20260902123056 18 236 17.7 27.4 0.00 0.00 0.00 51 1008.8
20260902122531 19 235 14.5 27.4 0.00 0.00 0.00 51 1008.5
20260902122033 18 244 17.7 27.4 0.00 0.00 0.00 51 1008.6
20260902121549 20 238 11.3 25.7 0.00 0.00 0.00 50 1008.6
20260902121034 18 250 9.7 19.3 0.00 0.00 0.00 54 1008.7
20260902120532 18 250 8.0 20.9 0.00 0.00 0.00 52 1008.7
20260902120053 18 240 9.7 24.1 0.00 0.00 0.00 50 1008.6
20260902115532 19 357 11.3 25.7 0.00 0.00 0.00 52 1008.6
20260902115034 18 243 14.5 35.4 0.00 0.00 0.00 49 1008.6
20260902114553 19 257 20.9 35.4 0.00 0.00 0.00 50 1008.5
20260902114034 20 237 12.9 25.7 0.00 0.00 0.00 49 1008.6
20260902113534 19 236 17.7 25.7 0.00 0.00 0.00 51 1008.7
20260902113053 18 264 9.7 29.0 0.00 0.00 0.00 52 1008.6
20260902112534 18 323 17.7 29.0 0.00 0.00 0.00 51 1008.7
20260902112031 19 229 12.9 24.1 0.00 0.00 0.00 52 1008.7
20260902111547 18 257 11.3 24.1 0.00 0.00 0.00 53 1008.8
20260902111032 18 218 9.7 32.2 0.00 0.00 0.00 53 1008.9
20260902110534 18 250 19.3 32.2 0.00 0.00 0.00 54 1008.9
20260902110050 18 218 9.7 22.5 0.00 0.00 0.00 54 1008.8
20260902105535 17 255 9.7 19.3 0.00 0.00 0.00 54 1008.9
20260902105034 17 283 6.4 24.1 0.00 0.00 0.00 55 1009.0
20260902104610 17 304 11.3 30.6 0.00 0.00 0.00 54 1009.0
20260902104036 18 252 16.1 32.2 0.00 0.00 0.00 53 1009.0
20260902103532 18 231 16.1 32.2 0.00 0.00 0.00 53 1008.9
20260902103106 18 225 12.9 32.2 0.00 0.00 0.00 54 1008.9
20260902102534 17 256 14.5 24.1 0.00 0.00 0.00 55 1009.0
20260902102031 17 248 9.7 27.4 0.00 0.00 0.00 55 1009.0
20260902101554 17 255 14.5 27.4 0.00 0.00 0.00 54 1009.0
20260902101032 17 250 14.5 24.1 0.00 0.00 0.00 56 1009.0
20260902100532 17 224 11.3 24.1 0.00 0.00 0.00 55 1009.0
20260902100044 17 308 14.5 24.1 0.00 0.00 0.00 54 1009.0
20260902095534 17 294 14.5 30.6 0.00 0.00 0.00 54 1009.0
20260902095032 17 232 16.1 30.6 0.00 0.00 0.00 55 1009.1
20260902094552 17 252 12.9 24.1 0.00 0.00 0.00 57 1009.0
20260902094031 17 323 8.0 27.4 0.00 0.00 0.00 55 1009.1
20260902093534 17 236 16.1 27.4 0.00 0.00 0.00 54 1009.0
20260902093047 17 224 16.1 27.4 0.00 0.00 0.00 55 1009.1
20260902092532 17 221 9.7 24.1 0.00 0.00 0.00 55 1009.1
20260902092034 17 268 8.0 27.4 0.00 0.00 0.00 57 1009.0
20260902091547 16 289 11.3 27.4 0.00 0.00 0.00 58 1009.1
20260902091035 17 250 14.5 22.5 0.00 0.00 0.00 56 1009.2
20260902090535 17 214 6.4 19.3 0.00 0.00 0.00 59 1009.2
20260902090051 16 206 9.7 17.7 0.00 0.00 0.00 58 1009.2
20260902085534 16 263 11.3 19.3 0.00 0.00 0.00 59 1009.2
20260902085034 16 219 6.4 29.0 0.00 0.00 0.00 60 1009.2
20260902084554 16 258 14.5 29.0 0.00 0.00 0.00 57 1009.3
20260902084032 16 219 11.3 20.9 0.00 0.00 0.00 58 1009.2
20260902083533 16 292 11.3 20.9 0.00 0.00 0.00 58 1009.1
20260902083051 16 278 9.7 17.7 0.00 0.00 0.00 58 1009.1
20260902082531 16 236 8.0 16.1 0.00 0.00 0.00 61 1009.1
20260902082031 15 252 9.7 16.1 0.00 0.00 0.00 62 1009.1
20260902081552 15 218 9.7 19.3 0.00 0.00 0.00 60 1009.1
20260902081031 15 212 9.7 19.3 0.00 0.00 0.00 62 1009.0
20260902080531 15 244 12.9 19.3 0.00 0.00 0.00 61 1009.1
20260902080050 15 229 8.0 16.1 0.00 0.00 0.00 65 1009.1
20260902075531 15 260 9.7 16.1 0.00 0.00 0.00 66 1009.1
20260902075032 15 303 6.4 19.3 0.00 0.00 0.00 65 1009.0
20260902074547 14 278 9.7 19.3 0.00 0.00 0.00 66 1009.0
20260902074034 14 177 8.0 16.1 0.00 0.00 0.00 68 1008.9
20260902073534 14 207 9.7 14.5 0.00 0.00 0.00 68 1008.9
20260902073053 13 239 8.0 14.5 0.00 0.00 0.00 71 1008.9
20260902072531 13 214 8.0 14.5 0.00 0.00 0.00 72 1008.8
20260902072059 13 214 8.0 17.7 0.00 0.00 0.00 71 1008.8
20260902071552 13 214 9.7 17.7 0.00 0.00 0.00 73 1008.8
20260902071031 13 214 8.0 14.5 0.00 0.00 0.00 74 1008.8
20260902070534 13 213 8.0 14.5 0.00 0.00 0.00 75 1008.8
20260902070050 13 221 9.7 14.5 0.00 0.00 0.00 77 1008.7
20260902065534 12 229 8.0 14.5 0.00 0.00 0.00 78 1008.8
20260902065035 12 230 8.0 19.3 0.00 0.00 0.00 79 1008.7
20260902064547 12 257 9.7 19.3 0.00 0.00 0.00 80 1008.6
20260902064034 12 241 11.3 19.3 0.00 0.00 0.00 79 1008.7
20260902063532 12 216 9.7 19.3 0.00 0.00 0.00 80 1008.5
20260902063106 12 227 8.0 12.9 0.00 0.00 0.00 82 1008.4
20260902062536 11 234 6.4 12.9 0.00 0.00 0.00 84 1008.4
20260902062034 11 215 6.4 12.9 0.00 0.00 0.00 86 1008.5
20260902061040 11 238 3.2 9.7 0.00 0.00 0.00 88 1008.4
20260902060534 11 207 1.6 9.7 0.00 0.00 0.00 89 1008.3
20260902060058 10 220 3.2 6.4 0.00 0.00 0.00 90 1008.3
20260902055533 10 199 1.6 4.8 0.00 0.00 0.00 91 1008.1
20260902055033 10 133 0.0 9.7 0.00 0.00 0.00 92 1008.0
20260902054555 10 271 1.6 11.3 0.00 0.00 0.00 93 1008.2
20260902054032 10 139 6.4 11.3 0.00 0.00 0.00 93 1008.0
20260902053536 10 0 0.0 6.4 0.00 0.00 0.00 93 1007.9
20260902053047 9 0 0.0 6.4 0.00 0.00 0.00 93 1007.9
20260902052532 9 109 0.0 1.6 0.00 0.00 0.00 93 1007.9
20260902052031 9 0 0.0 0.0 0.00 0.00 0.00 92 1007.9
20260902051557 9 0 0.0 0.0 0.00 0.00 0.00 92 1008.1
20260902051031 9 0 0.0 3.2 0.00 0.00 0.00 92 1008.0
20260902050532 9 0 0.0 3.2 0.00 0.00 0.00 92 1008.0
20260902050046 9 143 0.0 1.6 0.00 0.00 0.00 92 1008.1
20260902045531 9 0 0.0 4.8 0.00 0.00 0.00 92 1008.0
20260902045034 9 162 0.0 4.8 0.00 0.00 0.00 92 1008.1
20260902044606 9 207 1.6 4.8 0.00 0.00 0.00 91 1007.9
20260902044032 10 0 0.0 4.8 0.00 0.00 0.00 91 1008.0
20260902043530 10 0 0.0 4.8 0.00 0.00 0.00 92 1007.9
20260902043049 10 24 1.6 4.8 0.00 0.00 0.00 92 1008.0
20260902042532 9 0 1.6 3.2 0.00 0.00 0.00 91 1007.9
20260902042034 9 0 0.0 3.2 0.00 0.00 0.00 91 1007.8
20260902041557 10 79 1.6 3.2 0.00 0.00 0.00 91 1007.9
20260902041031 9 0 0.0 3.2 0.00 0.00 0.00 91 1007.8
20260902040531 10 94 1.6 3.2 0.00 0.00 0.00 91 1007.8
20260902040054 10 87 0.0 3.2 0.00 0.00 0.00 90 1007.8
20260902035531 10 104 0.0 3.2 0.00 0.00 0.00 90 1007.8
20260902035035 10 0 0.0 0.0 0.00 0.00 0.00 90 1007.8
20260902034552 10 0 0.0 0.0 0.00 0.00 0.00 90 1007.9
20260902034034 10 0 0.0 0.0 0.00 0.00 0.00 90 1007.9
20260902033531 10 0 0.0 0.0 0.00 0.00 0.00 89 1007.9
20260902033045 10 0 0.0 0.0 0.00 0.00 0.00 89 1007.8
20260902032534 10 0 0.0 0.0 0.00 0.00 0.00 89 1007.8
20260902032030 10 0 0.0 3.2 0.00 0.00 0.00 89 1007.9
20260902031601 10 0 0.0 8.0 0.00 0.00 0.00 89 1007.8
20260902031035 10 169 1.6 8.0 0.00 0.00 0.00 89 1007.8
20260902030537 10 0 0.0 3.2 0.00 0.00 0.00 89 1007.8
20260902030057 10 0 0.0 3.2 0.00 0.00 0.00 89 1007.8
20260902025535 10 0 0.0 3.2 0.00 0.00 0.00 89 1007.8
20260902025034 10 0 0.0 3.2 0.00 0.00 0.00 89 1007.7
20260902024557 10 0 0.0 3.2 0.00 0.00 0.00 89 1007.9
20260902024033 11 0 0.0 3.2 0.00 0.00 0.00 89 1007.8
20260902023536 10 0 0.0 3.2 0.00 0.00 0.00 89 1007.9
20260902023047 11 109 0.0 1.6 0.00 0.00 0.00 88 1007.8
20260902022532 11 0 0.0 1.6 0.00 0.00 0.00 88 1007.8
20260902022033 11 0 0.0 3.2 0.00 0.00 0.00 87 1008.0
20260902021553 11 0 0.0 4.8 0.00 0.00 0.00 87 1007.9
20260902021034 11 82 0.0 4.8 0.00 0.00 0.00 87 1007.8
20260902020533 11 102 3.2 4.8 0.00 0.00 0.00 87 1007.9
20260902020058 11 125 1.6 4.8 0.00 0.00 0.00 86 1008.0
20260902015533 11 134 1.6 4.8 0.00 0.00 0.00 85 1007.9
20260902015036 12 185 1.6 8.0 0.00 0.00 0.00 85 1007.9
20260902014546 12 155 0.0 8.0 0.00 0.00 0.00 86 1008.0
20260902014035 12 209 4.8 8.0 0.00 0.00 0.00 86 1008.1
20260902013533 11 256 4.8 6.4 0.00 0.00 0.00 87 1008.1
20260902013047 11 187 3.2 8.0 0.00 0.00 0.00 87 1008.2
20260902012534 11 0 0.0 8.0 0.00 0.00 0.00 88 1008.2
20260902012033 11 178 4.8 9.7 0.00 0.00 0.00 88 1008.1
20260902011551 11 216 4.8 9.7 0.00 0.00 0.00 87 1008.0
20260902011037 12 207 4.8 9.7 0.00 0.00 0.00 87 1008.1
20260902010530 12 184 4.8 9.7 0.00 0.00 0.00 88 1008.1
20260902010047 12 224 1.6 6.4 0.00 0.00 0.00 89 1008.3
20260902005531 12 217 1.6 4.8 0.00 0.00 0.00 89 1008.1
20260902005031 12 143 0.0 4.8 0.00 0.00 0.00 90 1008.3
20260902004556 12 141 3.2 6.4 0.00 0.00 0.00 90 1008.2
20260902004032 12 206 3.2 9.7 0.00 0.00 0.00 90 1008.3
20260902003530 12 227 6.4 9.7 0.00 0.00 0.00 90 1008.2
20260902003053 12 224 3.2 9.7 0.00 0.00 0.00 91 1008.3
20260902002533 13 206 4.8 11.3 0.00 0.00 0.00 91 1008.3
20260902002030 12 178 4.8 11.3 0.00 0.00 0.00 92 1008.3
20260902001551 13 165 4.8 11.3 0.00 0.00 0.00 92 1008.3
20260902001030 13 184 3.2 8.0 0.00 0.00 0.00 93 1008.4
20260902000530 13 212 3.2 8.0 0.00 0.00 0.00 93 1008.4
20260902000044 12 146 1.6 4.8 0.00 0.00 0.00 94 1008.4
20260901235532 12 0 0.0 4.8 0.00 0.00 0.00 94 1008.5
20260901235035 12 134 1.6 4.8 0.00 0.00 0.00 94 1008.4
20260901234547 12 0 0.0 6.4 0.00 0.00 0.00 94 1008.3
20260901234033 12 86 1.6 6.4 0.00 0.00 0.00 94 1008.3
20260901233531 12 105 1.6 6.4 0.00 0.00 0.00 94 1008.4
20260901233049 12 0 0.0 1.6 0.00 0.00 0.00 94 1008.2
20260901232531 12 0 0.0 1.6 0.00 0.00 0.00 94 1008.3
20260901232034 12 0 0.0 1.6 0.00 0.00 0.00 94 1008.5
20260901231550 12 110 0.0 1.6 0.00 0.00 0.00 94 1008.4
20260901231030 12 0 0.0 0.0 0.00 0.00 0.00 94 1008.4
20260901230534 12 0 0.0 3.2 0.00 0.00 0.00 94 1008.3
20260901230107 12 0 0.0 3.2 0.00 0.00 0.00 94 1008.1
20260901225533 12 109 0.0 0.0 0.00 0.00 0.00 94 1008.1
20260901225031 12 0 0.0 1.6 0.00 0.00 0.00 94 1008.1
20260901224550 12 0 0.0 4.8 0.00 0.00 0.00 94 1008.1
20260901224031 12 0 0.0 4.8 0.00 0.00 0.00 94 1008.1
20260901223534 12 98 1.6 4.8 0.00 0.00 0.00 93 1008.2
20260901223055 12 0 1.6 3.2 0.00 0.00 0.00 93 1008.2
20260901222536 12 0 0.0 0.0 0.00 0.00 0.00 93 1008.2
20260901222036 12 0 0.0 0.0 0.00 0.00 0.00 93 1008.2
20260901221607 12 0 0.0 0.0 0.00 0.00 0.00 93 1008.1
20260901221033 12 0 0.0 1.6 0.00 0.00 0.00 93 1008.2
20260901220532 12 0 0.0 3.2 0.00 0.00 0.00 93 1008.2
20260901220048 12 0 0.0 3.2 0.00 0.00 0.00 93 1008.2
20260901215535 12 104 1.6 3.2 0.00 0.00 0.00 93 1008.1
20260901215031 12 110 1.6 3.2 0.00 0.00 0.00 93 1008.1
20260901214546 12 112 1.6 3.2 0.00 0.00 0.00 93 1008.2
20260901214033 12 106 0.0 4.8 0.00 0.00 0.00 93 1008.1
20260901213537 13 140 0.0 4.8 0.00 0.00 0.00 93 1008.1
20260901213056 13 143 0.0 3.2 0.00 0.00 0.00 93 1008.0
20260901212533 13 117 0.0 3.2 0.00 0.00 0.00 93 1008.0
20260901212032 13 160 0.0 3.2 0.00 0.00 0.00 93 1008.1
20260901211551 12 0 0.0 3.2 0.00 0.00 0.00 93 1008.1
20260901211032 12 138 0.0 3.2 0.00 0.00 0.00 93 1008.2
20260901210534 13 141 0.0 6.4 0.00 0.00 0.00 93 1008.1
20260901210047 13 0 0.0 6.4 0.00 0.00 0.00 93 1008.2
20260901205532 12 123 3.2 4.8 0.00 0.00 0.00 92 1008.3
20260901205034 12 111 3.2 4.8 0.00 0.00 0.00 92 1008.3
20260901204544 13 124 3.2 4.8 0.00 0.00 0.00 92 1008.3
20260901204030 13 116 1.6 4.8 0.00 0.00 0.00 92 1008.5
20260901203533 13 105 1.6 4.8 0.00 0.00 0.00 92 1008.4
20260901203056 13 0 0.0 0.0 0.00 0.00 0.00 92 1008.5
20260901202533 13 0 0.0 0.0 0.00 0.00 0.00 91 1008.4
20260901202033 13 0 0.0 0.0 0.00 0.00 0.00 91 1008.6
20260901201550 13 0 0.0 0.0 0.00 0.00 0.00 91 1008.4
20260901201037 13 0 0.0 0.0 0.00 0.00 0.00 91 1008.4
20260901200530 13 0 0.0 0.0 0.00 0.00 0.00 91 1008.4
20260901200045 13 0 0.0 0.0 0.00 0.00 0.00 91 1008.5
20260901195530 13 0 0.0 0.0 0.00 0.00 0.00 91 1008.5
20260901195031 13 0 0.0 1.6 0.00 0.00 0.00 90 1008.5